Saranac Lake, NY

6:21 AM EDT on June 23, 2018 (GMT -0400)
Adirondack Regional

Weather History for KSLK - September, 2017

Change the Weather History Date:

Saturday, September 23, 2017

  Actual Average Record
Temperature  
Mean Temperature 62 °F 51 °F  
Max Temperature 83 °F 63 °F 87 °F (1965)
Min Temperature 40 °F 39 °F 24 °F (1991)
Degree Days  
Heating Degree Days 3 14  
Month to date heating degree days 186 234  
Since 1 July heating degree days 458 474  
Cooling Degree Days 0 0  
Month to date cooling degree days 0 7  
Year to date cooling degree days 53 114  
Growing Degree Days 12 (Base 50)    
Moisture  
Dew Point 54 °F    
Average Humidity 73    
Maximum Humidity 100    
Minimum Humidity 46    
Precipitation  
Precipitation 0.00 in 0.11 in 1.90 in (1981)
Month to date precipitation 1.65 2.61  
Year to date precipitation 33.31 27.15  
Sea Level Pressure  
Sea Level Pressure 30.12 in    
Wind  
Wind Speed 3 mph (WSW)    
Max Wind Speed 9 mph    
Max Gust Speed 15 mph    
Visibility 8 miles    
Events Fog    
T = Trace of Precipitation, MM = Missing Value Source: NWS Daily Summary

Daily Weather History Graph

Daily Weather History Graph

Search for Another Location

Airport or City:

Astronomy

Sep. 23, 2017 Rise Set
Actual Time 6:45 AM EDT 6:51 PM EDT
Civil Twilight 6:16 AM EDT 7:20 PM EDT
Nautical Twilight 5:42 AM EDT 7:54 PM EDT
Astronomical Twilight 5:07 AM EDT 8:29 PM EDT
Moon 10:07 AM EDT 8:58 PM EDT
Length of Visible Light 13h 04m
Length of Day
12h 06m
Waxing Crescent, 12% of the Moon is Illuminated
Sep 23
Waxing Crescent
Sep 27
First Quarter
Oct 5
Full
Oct 12
Last Quarter
Oct 19
New

Hourly Weather History & Observations

Time (EDT) Temp. Heat Index Dew Point Humidity Pressure Visibility Wind Dir Wind Speed Gust Speed Precip Events Conditions
12:51 AM 44.1 °F - 44.1 °F 100% 30.12 in 10.0 mi Calm Calm - N/A   Clear
1:51 AM 42.1 °F - 42.1 °F 100% 30.10 in 10.0 mi Calm Calm - N/A   Clear
2:51 AM 43.0 °F - 41.0 °F 93% 30.09 in 10.0 mi Calm Calm - N/A   Clear
3:51 AM 42.1 °F - 42.1 °F 100% 30.08 in 10.0 mi Calm Calm - N/A   Clear
4:51 AM 41.0 °F - 41.0 °F 100% 30.08 in 10.0 mi Calm Calm - N/A   Clear
5:51 AM 41.0 °F - 41.0 °F 100% 30.10 in 10.0 mi Calm Calm - N/A   Clear
6:51 AM 41.0 °F - 41.0 °F 100% 30.12 in 10.0 mi Calm Calm - N/A   Clear
7:51 AM 46.9 °F - 45.0 °F 93% 30.15 in 10.0 mi Calm Calm - N/A   Clear
8:51 AM 59.0 °F - 53.1 °F 81% 30.16 in 10.0 mi SW 5.8 mph - N/A   Clear
9:51 AM 64.0 °F - 51.1 °F 63% 30.16 in 10.0 mi South 5.8 mph - N/A   Clear
10:51 AM 70.0 °F - 51.1 °F 51% 30.14 in 10.0 mi South 5.8 mph - N/A   Clear
11:51 AM 75.0 °F - 53.1 °F 46% 30.13 in 10.0 mi WSW 6.9 mph - N/A   Clear
12:51 PM 77.0 °F - 55.9 °F 48% 30.12 in 10.0 mi Variable 5.8 mph - N/A   Clear
1:51 PM 80.1 °F 80.9 °F 60.1 °F 50% 30.11 in 10.0 mi West 9.2 mph - N/A   Clear
2:51 PM 82.0 °F 83.0 °F 62.1 °F 51% 30.10 in 10.0 mi North - - N/A   Clear
3:51 PM 82.0 °F 83.1 °F 63.0 °F 52% 30.08 in 10.0 mi NW 5.8 mph - N/A   Partly Cloudy
4:51 PM 80.1 °F 81.7 °F 64.0 °F 58% 30.08 in 10.0 mi Variable 5.8 mph - N/A   Clear
5:51 PM 79.0 °F - 63.0 °F 58% 30.09 in 10.0 mi Variable 5.8 mph - N/A   Clear
6:51 PM 73.0 °F - 64.0 °F 73% 30.09 in 10.0 mi Calm Calm - N/A   Clear
7:51 PM 66.0 °F - 64.0 °F 93% 30.10 in 10.0 mi Calm Calm - N/A   Clear
8:37 PM 64.0 °F - 63.0 °F 96% 30.11 in 10.0 mi Calm Calm - N/A   Partly Cloudy
8:51 PM 63.0 °F - 62.1 °F 97% 30.11 in 10.0 mi Calm Calm - N/A   Partly Cloudy
9:51 PM 60.1 °F - 60.1 °F 100% 30.12 in 8.0 mi Calm Calm - N/A   Clear
10:15 PM 59.0 °F - 59.0 °F 100% 30.13 in 4.0 mi Calm Calm - N/A   Partly Cloudy
10:26 PM 57.0 °F - 57.0 °F 100% 30.13 in 1.8 mi Calm Calm - N/A   Clear
10:51 PM 57.0 °F - 57.0 °F 100% 30.12 in 0.5 mi Calm Calm - N/A Fog Fog
11:00 PM 57.0 °F - 57.0 °F 100% 30.13 in 2.0 mi Calm Calm - N/A   Clear
11:07 PM 57.0 °F - 57.0 °F 100% 30.14 in 10.0 mi Calm Calm - N/A   Clear
11:24 PM 55.9 °F - 55.9 °F 100% 30.13 in 2.5 mi Calm Calm - N/A   Clear
11:36 PM 55.0 °F - 55.0 °F 100% 30.13 in 0.8 mi Calm Calm - N/A   Clear
11:51 PM 54.0 °F - 54.0 °F 100% 30.12 in 0.5 mi Calm Calm - N/A Fog Fog